Project,Study,Ord_Occ,Event_Num,Cast_ID,Date_Time_UTC,Date_Time_PST,Lat_Dec,Lon_Dec,Sta_ID,Line,Sta,Depth,Pressure,PrQ,Temp1,Temp1Q,Temp2,Temp2Q,TempAve,Salt1,Salt1Q,Salt1_Corr,Salt2,Salt2Q,Salt2_Corr,SaltAve_Corr,Ox1,Ox1Q,Ox1_CruiseCorr,Ox1_StaCorr,Ox2,Ox2Q,Ox2_CruiseCorr,Ox2_StaCorr,OxAve_StaCorr,Ox1uM,Ox1uM_CruiseCorr,Ox1uM_StaCorr,Ox2uM,Ox2uM_CruiseCorr,Ox2uM_StaCorr,OxAveuM_StaCorr,FluorV,FluorQ,EstChl_CruiseCorr,EstChl_StaCorr,ISUSV,ISUSQ,EstNO3_CruiseCorr,EstNO3_StaCorr,SigThetaTS1,SigThetaTS1Q,SigThetaTS2,SigThetaTS2Q,BAT,XMiss,TransQ,pH,pHQ,SPAR,SPARQ,PAR,PARQ,PoT1,PoT2,DynHt,SVA,OxSat1,OxSat2,BTL_Depth,BTL_Temp,SaltB,OxB,OxBuM,Chl-a,Phaeo,NO3,NO2,NH4,PO4,SIL
CalCOFI,2007SR,012,13,2007_012u,15-Jul-2020 07:39:08,14-Jul-2020 23:39:08,31.51288,-120.24670,093.3 070.0,093.3,070.0,516.000,520.253,,6.2578,,6.2578,,6.2578,34.3130,,34.3132,34.3140,,34.3156,34.3144,0.2987,,0.2944,0.3463,1.7525,,0.2425,0.7574,0.5519,12.991,13.0732,14.3976,76.211,,31.0873,22.7425,0.0327,,,,1.7497,,38.8917,38.218,26.9828,,26.9836,,0.6269,85.4955,,7.585,,1.9043E+00,,1.0000E-12,,6.2114,6.2114,0.9749,,4.330,25.403,,,,,,,,,,,,
CalCOFI,2007SR,012,13,2007_012u,15-Jul-2020 07:39:20,14-Jul-2020 23:39:20,31.51290,-120.24670,093.3 070.0,093.3,070.0,515.000,519.243,,6.2585,,6.2581,,6.2583,34.3129,,34.3131,34.3140,,34.3156,34.3144,0.3016,,0.2974,0.3493,1.7469,,0.2292,0.7443,0.5468,13.116,13.2037,14.5278,75.965,,30.5157,22.5218,0.0326,,,,1.7493,,38.8805,38.207,26.9826,,26.9835,,0.6264,85.5049,,7.585,,1.9043E+00,,1.0000E-12,,6.2123,6.2118,0.9755,,4.372,25.321,515,6.259,34.3062,0.305,13.26,,,38.73,0.00,0.00,3.12,75.88
CalCOFI,2007SR,012,13,2007_012u,15-Jul-2020 07:39:27,14-Jul-2020 23:39:27,31.51289,-120.24670,093.3 070.0,093.3,070.0,514.000,518.234,,6.2610,,6.2600,,6.2605,34.3127,,34.3129,34.3139,,34.3155,34.3142,0.3010,,0.2968,0.3487,1.7406,,0.2141,0.7295,0.5391,13.088,13.1745,14.4986,75.693,,29.8837,22.1912,0.0321,,,,1.7370,,38.5351,37.868,26.9821,,26.9832,,0.6266,85.5015,,7.585,,1.9043E+00,,1.0000E-12,,6.2148,6.2138,0.9758,,4.363,25.232,,,,,,,,,,,,
CalCOFI,2007SR,012,13,2007_012u,15-Jul-2020 07:39:29,14-Jul-2020 23:39:29,31.51288,-120.24670,093.3 070.0,093.3,070.0,513.000,517.224,,6.2654,,6.2651,,6.2653,34.3126,,34.3128,34.3135,,34.3151,34.3140,0.3011,,0.2969,0.3488,1.7376,,0.2070,0.7225,0.5357,13.095,13.1818,14.5059,75.563,,29.5817,22.0438,0.0325,,,,1.7366,,38.5239,37.857,26.9814,,26.9822,,0.6268,85.4980,,7.585,,1.9043E+00,,1.0000E-12,,6.2192,6.2189,0.9758,,4.366,25.192,,,,,,,,,,,,
CalCOFI,2007SR,012,13,2007_012u,15-Jul-2020 07:39:30,14-Jul-2020 23:39:30,31.51288,-120.24670,093.3 070.0,093.3,070.0,512.000,516.215,,6.2673,,6.2672,,6.2673,34.3125,,34.3127,34.3133,,34.3149,34.3138,0.3011,,0.2969,0.3488,1.7401,,0.2129,0.7284,0.5386,13.093,13.1797,14.5038,75.670,,29.8303,22.1671,0.0320,,,,1.7369,,38.5323,37.865,26.9811,,26.9818,,0.6266,85.5005,,7.585,,1.9043E+00,,1.0000E-12,,6.2212,6.2211,0.9758,,4.365,25.228,,,,,,,,,,,,
CalCOFI,2007SR,012,13,2007_012u,15-Jul-2020 07:39:31,14-Jul-2020 23:39:31,31.51288,-120.24670,093.3 070.0,093.3,070.0,511.000,515.205,,6.2732,,6.2724,,6.2728,34.3122,,34.3124,34.3131,,34.3147,34.3136,0.3010,,0.2968,0.3487,1.7396,,0.2117,0.7272,0.5380,13.089,13.1755,14.4997,75.648,,29.7792,22.1395,0.0326,,,,1.7373,,38.5435,37.876,26.9801,,26.9809,,0.6265,85.5034,,7.585,,1.9043E+00,,1.0000E-12,,6.2272,6.2264,0.9758,,4.364,25.224,,,,,,,,,,,,
CalCOFI,2007SR,012,13,2007_012u,15-Jul-2020 07:39:32,14-Jul-2020 23:39:32,31.51288,-120.24670,093.3 070.0,093.3,070.0,510.000,514.196,,6.2763,,6.2763,,6.2763,34.3120,,34.3122,34.3129,,34.3145,34.3134,0.3009,,0.2967,0.3486,1.7392,,0.2108,0.7263,0.5375,13.086,13.1724,14.4965,75.630,,29.7374,22.1170,0.0326,,,,1.7377,,38.5548,37.887,26.9795,,26.9803,,0.6268,85.4965,,7.585,,1.9043E+00,,1.0000E-12,,6.2304,6.2304,0.9758,,4.364,25.220,,,,,,,,,,,,
CalCOFI,2007SR,012,13,2007_012u,15-Jul-2020 07:39:33,14-Jul-2020 23:39:33,31.51288,-120.24670,093.3 070.0,093.3,070.0,509.000,513.186,,6.2790,,6.2790,,6.2790,34.3119,,34.3121,34.3128,,34.3144,34.3133,0.3032,,0.2991,0.3510,1.7388,,0.2098,0.7253,0.5382,13.187,13.2778,14.6017,75.615,,29.7025,22.1521,0.0333,,,,1.7378,,38.5576,37.890,26.9791,,26.9798,,0.6269,85.4952,,7.586,,1.9043E+00,,1.0000E-12,,6.2332,6.2332,0.9758,,4.398,25.217,,,,,,,,,,,,
CalCOFI,2007SR,012,13,2007_012u,15-Jul-2020 07:39:34,14-Jul-2020 23:39:34,31.51288,-120.24668,093.3 070.0,093.3,070.0,508.000,512.177,,6.2814,,6.2815,,6.2815,34.3117,,34.3119,34.3127,,34.3143,34.3131,0.3042,,0.3002,0.3520,1.7385,,0.2091,0.7246,0.5383,13.229,13.3217,14.6455,75.600,,29.6677,22.1566,0.0331,,,,1.7375,,38.5492,37.882,26.9787,,26.9794,,0.6265,85.5034,,7.585,,1.9043E+00,,1.0000E-12,,6.2356,6.2357,0.9758,,4.412,25.213,,,,,,,,,,,,
CalCOFI,2007SR,012,13,2007_012u,15-Jul-2020 07:39:35,14-Jul-2020 23:39:35,31.51288,-120.24668,093.3 070.0,093.3,070.0,507.000,511.167,,6.2837,,6.2837,,6.2837,34.3117,,34.3119,34.3125,,34.3141,34.3130,0.3077,,0.3038,0.3557,1.7356,,0.2022,0.7179,0.5368,13.382,13.4814,14.8048,75.475,,29.3772,22.0910,0.0325,,,,1.7371,,38.5379,37.871,26.9783,,26.9789,,0.6265,85.5025,,7.585,,1.9043E+00,,1.0000E-12,,6.2380,6.2381,0.9758,,4.463,25.173,,,,,,,,,,,,
CalCOFI,2007SR,012,13,2007_012u,15-Jul-2020 07:39:36,14-Jul-2020 23:39:36,31.51288,-120.24668,093.3 070.0,093.3,070.0,506.000,510.158,,6.2864,,6.2864,,6.2864,34.3114,,34.3116,34.3124,,34.3140,34.3128,0.3046,,0.3006,0.3524,1.7356,,0.2022,0.7179,0.5352,13.247,13.3404,14.6642,75.477,,29.3819,22.0231,0.0325,,,,1.7365,,38.5211,37.854,26.9777,,26.9785,,0.6267,85.4998,,7.585,,1.9043E+00,,1.0000E-12,,6.2408,6.2408,0.9758,,4.418,25.175,,,,,,,,,,,,
CalCOFI,2007SR,012,13,2007_012u,15-Jul-2020 07:39:37,14-Jul-2020 23:39:37,31.51288,-120.24670,093.3 070.0,093.3,070.0,505.000,509.149,,6.2903,,6.2903,,6.2903,34.3112,,34.3114,34.3123,,34.3139,34.3127,0.3042,,0.3002,0.3520,1.7294,,0.1874,0.7034,0.5277,13.228,13.3206,14.6444,75.207,,28.7545,21.6995,0.0328,,,,1.7354,,38.4902,37.824,26.9770,,26.9779,,0.6270,85.4931,,7.585,,1.9043E+00,,1.0000E-12,,6.2448,6.2448,0.9758,,4.413,25.087,,,,,,,,,,,,
CalCOFI,2007SR,012,13,2007_012u,15-Jul-2020 07:39:38,14-Jul-2020 23:39:38,31.51288,-120.24670,093.3 070.0,093.3,070.0,504.000,508.139,,6.2958,,6.2952,,6.2955,34.3110,,34.3112,34.3121,,34.3137,34.3125,0.3048,,0.3008,0.3526,1.7291,,0.1867,0.7027,0.5277,13.254,13.3478,14.6715,75.192,,28.7197,21.6956,0.0320,,,,1.7339,,38.4481,37.783,26.9762,,26.9771,,0.6265,85.5035,,7.585,,1.9043E+00,,1.0000E-12,,6.2504,6.2498,0.9758,,4.422,25.085,,,,,,,,,,,,
CalCOFI,2007SR,012,13,2007_012u,15-Jul-2020 07:39:39,14-Jul-2020 23:39:39,31.51288,-120.24670,093.3 070.0,093.3,070.0,503.000,507.130,,6.3022,,6.3012,,6.3017,34.3108,,34.3110,34.3119,,34.3135,34.3123,0.3076,,0.3037,0.3556,1.7314,,0.1922,0.7080,0.5318,13.374,13.4730,14.7965,75.295,,28.9590,21.8778,0.0328,,,,1.7327,,38.4144,37.749,26.9752,,26.9762,,0.6268,85.4975,,7.586,,1.9043E+00,,1.0000E-12,,6.2568,6.2559,0.9758,,4.462,25.123,,,,,,,,,,,,
CalCOFI,2007SR,012,13,2007_012u,15-Jul-2020 07:39:40,14-Jul-2020 23:39:40,31.51288,-120.24670,093.3 070.0,093.3,070.0,502.000,506.120,,6.3093,,6.3084,,6.3089,34.3105,,34.3107,34.3114,,34.3130,34.3119,0.3116,,0.3079,0.3597,1.7309,,0.1910,0.7069,0.5333,13.551,13.6578,14.9808,75.272,,28.9056,21.9432,0.0324,,,,1.7317,,38.3863,37.722,26.9740,,26.9748,,0.6270,85.4917,,7.586,,1.9043E+00,,1.0000E-12,,6.2640,6.2631,0.9758,,4.522,25.119,,,,,,,,,,,,
CalCOFI,2007SR,012,13,2007_012u,15-Jul-2020 07:39:41,14-Jul-2020 23:39:41,31.51288,-120.24670,093.3 070.0,093.3,070.0,501.000,505.111,,6.3133,,6.3137,,6.3135,34.3103,,34.3105,34.3112,,34.3128,34.3117,0.3102,,0.3064,0.3583,1.7305,,0.1900,0.7059,0.5321,13.491,13.5952,14.9183,75.252,,28.8591,21.8887,0.0324,,,,1.7310,,38.3666,37.703,26.9733,,26.9740,,0.6268,85.4962,,7.585,,1.9043E+00,,1.0000E-12,,6.2681,6.2685,0.9758,,4.503,25.116,,,,,,,,,,,,
CalCOFI,2007SR,012,13,2007_012u,15-Jul-2020 07:39:42,14-Jul-2020 23:39:42,31.51288,-120.24669,093.3 070.0,093.3,070.0,500.000,504.101,,6.3179,,6.3180,,6.3180,34.3100,,34.3102,34.3109,,34.3125,34.3114,0.3118,,0.3081,0.3599,1.7300,,0.1888,0.7048,0.5324,13.561,13.6682,14.9912,75.234,,28.8173,21.9043,0.0328,,,,1.7304,,38.3498,37.686,26.9724,,26.9731,,0.6272,85.4883,,7.585,,1.9043E+00,,1.0000E-12,,6.2728,6.2729,0.9758,,4.526,25.112,,,,,,,,,,,,
CalCOFI,2007SR,012,13,2007_012u,15-Jul-2020 07:39:43,14-Jul-2020 23:39:43,31.51288,-120.24668,093.3 070.0,093.3,070.0,499.000,503.092,,6.3219,,6.3219,,6.3219,34.3098,,34.3100,34.3107,,34.3123,34.3112,0.3139,,0.3103,0.3621,1.7295,,0.1876,0.7036,0.5329,13.649,13.7601,15.0829,75.210,,28.7615,21.9222,0.0326,,,,1.7301,,38.3414,37.678,26.9718,,26.9725,,0.6276,85.4799,,7.586,,1.9043E+00,,1.0000E-12,,6.2769,6.2769,0.9758,,4.556,25.106,,,,,,,,,,,,
CalCOFI,2007SR,012,13,2007_012u,15-Jul-2020 07:39:44,14-Jul-2020 23:39:44,31.51288,-120.24668,093.3 070.0,093.3,070.0,498.000,502.083,,6.3261,,6.3257,,6.3259,34.3096,,34.3098,34.3104,,34.3120,34.3109,0.3129,,0.3092,0.3611,1.7275,,0.1829,0.6989,0.5300,13.609,13.7183,15.0412,75.126,,28.5663,21.8038,0.0323,,,,1.7296,,38.3273,37.664,26.9710,,26.9718,,0.6274,85.4835,,7.586,,1.9043E+00,,1.0000E-12,,6.2811,6.2807,0.9758,,4.543,25.080,,,,,,,,,,,,
CalCOFI,2007SR,012,13,2007_012u,15-Jul-2020 07:39:45,14-Jul-2020 23:39:45,31.51288,-120.24668,093.3 070.0,093.3,070.0,497.000,501.073,,6.3294,,6.3292,,6.3293,34.3093,,34.3095,34.3103,,34.3119,34.3107,0.3110,,0.3073,0.3591,1.7267,,0.1810,0.6970,0.5281,13.526,13.6317,14.9548,75.090,,28.4827,21.7188,0.0325,,,,1.7286,,38.2992,37.636,26.9704,,26.9712,,0.6274,85.4833,,7.586,,1.9043E+00,,1.0000E-12,,6.2845,6.2843,0.9758,,4.516,25.070,,,,,,,,,,,,
CalCOFI,2007SR,012,13,2007_012u,15-Jul-2020 07:39:46,14-Jul-2020 23:39:46,31.51288,-120.24670,093.3 070.0,093.3,070.0,496.000,500.064,,6.3330,,6.3334,,6.3332,34.3091,,34.3093,34.3101,,34.3117,34.3105,0.3109,,0.3072,0.3590,1.7218,,0.1693,0.6856,0.5223,13.522,13.6275,14.9506,74.876,,27.9855,21.4681,0.0330,,,,1.7269,,38.2515,37.590,26.9698,,26.9705,,0.6276,85.4798,,7.587,,1.9043E+00,,1.0000E-12,,6.2882,6.2886,0.9758,,4.515,25.001,,,,,,,,,,,,
CalCOFI,2007SR,012,13,2007_012u,15-Jul-2020 07:39:47,14-Jul-2020 23:39:47,31.51288,-120.24670,093.3 070.0,093.3,070.0,495.000,499.054,,6.3362,,6.3362,,6.3362,34.3089,,34.3091,34.3098,,34.3114,34.3103,0.3119,,0.3082,0.3600,1.7224,,0.1707,0.6870,0.5235,13.563,13.6703,14.9933,74.904,,28.0505,21.5219,0.0326,,,,1.7256,,38.2150,37.554,26.9691,,26.9699,,0.6271,85.4912,,7.589,,1.9043E+00,,1.0000E-12,,6.2915,6.2915,0.9758,,4.529,25.012,,,,,,,,,,,,
CalCOFI,2007SR,012,13,2007_012u,15-Jul-2020 07:39:48,14-Jul-2020 23:39:48,31.51288,-120.24670,093.3 070.0,093.3,070.0,494.000,498.045,,6.3454,,6.3439,,6.3447,34.3086,,34.3088,34.3098,,34.3114,34.3101,0.3183,,0.3149,0.3667,1.7214,,0.1683,0.6847,0.5257,13.843,13.9626,15.2849,74.861,,27.9506,21.6178,0.0331,,,,1.7246,,38.1869,37.526,26.9677,,26.9689,,0.6267,85.5001,,7.588,,1.9043E+00,,1.0000E-12,,6.3008,6.2992,0.9758,,4.624,25.002,,,,,,,,,,,,
CalCOFI,2007SR,012,13,2007_012u,15-Jul-2020 07:39:49,14-Jul-2020 23:39:49,31.51288,-120.24670,093.3 070.0,093.3,070.0,493.000,497.036,,6.3503,,6.3504,,6.3504,34.3081,,34.3083,34.3089,,34.3105,34.3094,0.3172,,0.3137,0.3656,1.7218,,0.1693,0.6856,0.5256,13.796,13.9135,15.2360,74.878,,27.9901,21.6131,0.0327,,,,1.7239,,38.1673,37.507,26.9667,,26.9673,,0.6271,85.4913,,7.588,,1.9043E+00,,1.0000E-12,,6.3057,6.3058,0.9758,,4.608,25.011,,,,,,,,,,,,
CalCOFI,2007SR,012,13,2007_012u,15-Jul-2020 07:39:50,14-Jul-2020 23:39:50,31.51288,-120.24670,093.3 070.0,093.3,070.0,492.000,496.026,,6.3550,,6.3561,,6.3556,34.3079,,34.3081,34.3088,,34.3104,34.3093,0.3142,,0.3106,0.3624,1.7211,,0.1676,0.6840,0.5232,13.665,13.7768,15.0995,74.844,,27.9111,21.5053,0.0321,,,,1.7236,,38.1588,37.499,26.9659,,26.9665,,0.6275,85.4809,,7.588,,1.9043E+00,,1.0000E-12,,6.3105,6.3116,0.9758,,4.565,25.003,,,,,,,,,,,,
CalCOFI,2007SR,012,13,2007_012u,15-Jul-2020 07:39:51,14-Jul-2020 23:39:51,31.51288,-120.24669,093.3 070.0,093.3,070.0,491.000,495.017,,6.3598,,6.3605,,6.3602,34.3074,,34.3076,34.3083,,34.3099,34.3088,0.3198,,0.3165,0.3683,1.7211,,0.1676,0.6840,0.5262,13.908,14.0305,15.3526,74.848,,27.9204,21.6365,0.0320,,,,1.7240,,38.1701,37.510,26.9649,,26.9655,,0.6270,85.4930,,7.587,,1.9043E+00,,1.0000E-12,,6.3154,6.3160,0.9758,,4.647,25.007,,,,,,,,,,,,
CalCOFI,2007SR,012,13,2007_012u,15-Jul-2020 07:39:52,14-Jul-2020 23:39:52,31.51288,-120.24668,093.3 070.0,093.3,070.0,490.000,494.007,,6.3638,,6.3642,,6.3640,34.3071,,34.3073,34.3080,,34.3096,34.3085,0.3214,,0.3181,0.3699,1.7207,,0.1666,0.6830,0.5265,13.977,14.1025,15.4245,74.831,,27.8809,21.6527,0.0323,,,,1.7248,,38.1925,37.532,26.9641,,26.9648,,0.6269,85.4953,,7.588,,1.9043E+00,,1.0000E-12,,6.3194,6.3198,0.9758,,4.670,25.004,,,,,,,,,,,,
CalCOFI,2007SR,012,13,2007_012u,15-Jul-2020 07:39:53,14-Jul-2020 23:39:53,31.51288,-120.24668,093.3 070.0,093.3,070.0,489.000,492.998,,6.3661,,6.3665,,6.3663,34.3069,,34.3071,34.3078,,34.3094,34.3083,0.3182,,0.3148,0.3666,1.7204,,0.1659,0.6823,0.5245,13.839,13.9584,15.2808,74.817,,27.8484,21.5646,0.0328,,,,1.7256,,38.2150,37.554,26.9636,,26.9643,,0.6270,85.4931,,7.588,,1.9043E+00,,1.0000E-12,,6.3218,6.3223,0.9758,,4.624,25.000,,,,,,,,,,,,
CalCOFI,2007SR,012,13,2007_012u,15-Jul-2020 07:39:54,14-Jul-2020 23:39:54,31.51288,-120.24668,093.3 070.0,093.3,070.0,488.000,491.989,,6.3683,,6.3684,,6.3684,34.3068,,34.3070,34.3075,,34.3091,34.3081,0.3177,,0.3143,0.3661,1.7201,,0.1652,0.6816,0.5239,13.818,13.9365,15.2589,74.804,,27.8182,21.5386,0.0324,,,,1.7264,,38.2375,37.576,26.9632,,26.9638,,0.6276,85.4797,,7.588,,1.9043E+00,,1.0000E-12,,6.3242,6.3242,0.9758,,4.617,24.997,,,,,,,,,,,,
CalCOFI,2007SR,012,13,2007_012u,15-Jul-2020 07:39:55,14-Jul-2020 23:39:55,31.51288,-120.24668,093.3 070.0,093.3,070.0,487.000,490.979,,6.3695,,6.3695,,6.3695,34.3066,,34.3068,34.3074,,34.3090,34.3079,0.3181,,0.3147,0.3665,1.7198,,0.1645,0.6809,0.5237,13.833,13.9522,15.2745,74.792,,27.7903,21.5324,0.0327,,,,1.7269,,38.2515,37.590,26.9630,,26.9636,,0.6273,85.4861,,7.589,,1.9043E+00,,1.0000E-12,,6.3254,6.3254,0.9758,,4.623,24.993,,,,,,,,,,,,
CalCOFI,2007SR,012,13,2007_012u,15-Jul-2020 07:39:56,14-Jul-2020 23:39:56,31.51288,-120.24668,093.3 070.0,093.3,070.0,486.000,489.970,,6.3716,,6.3716,,6.3716,34.3065,,34.3067,34.3074,,34.3090,34.3079,0.3199,,0.3166,0.3684,1.7195,,0.1638,0.6802,0.5243,13.913,14.0357,15.3578,74.778,,27.7578,21.5578,0.0330,,,,1.7272,,38.2599,37.598,26.9626,,26.9633,,0.6269,85.4947,,7.588,,1.9043E+00,,1.0000E-12,,6.3276,6.3276,0.9758,,4.650,24.990,,,,,,,,,,,,
CalCOFI,2007SR,012,13,2007_012u,15-Jul-2020 07:39:57,14-Jul-2020 23:39:57,31.51288,-120.24668,093.3 070.0,093.3,070.0,485.000,488.960,,6.3761,,6.3770,,6.3766,34.3063,,34.3065,34.3072,,34.3088,34.3077,0.3214,,0.3181,0.3699,1.7188,,0.1621,0.6786,0.5243,13.975,14.1004,15.4224,74.746,,27.6834,21.5529,0.0324,,,,1.7274,,38.2655,37.603,26.9619,,26.9624,,0.6275,85.4820,,7.589,,1.9043E+00,,1.0000E-12,,6.3322,6.3331,0.9758,,4.671,24.983,,,,,,,,,,,,
CalCOFI,2007SR,012,13,2007_012u,15-Jul-2020 07:39:58,14-Jul-2020 23:39:58,31.51288,-120.24669,093.3 070.0,093.3,070.0,484.000,487.951,,6.3803,,6.3807,,6.3805,34.3060,,34.3062,34.3068,,34.3084,34.3073,0.3231,,0.3199,0.3717,1.7187,,0.1619,0.6783,0.5250,14.052,14.1808,15.5026,74.740,,27.6695,21.5861,0.0330,,,,1.7267,,38.2459,37.584,26.9610,,26.9616,,0.6274,85.4850,,7.589,,1.9043E+00,,1.0000E-12,,6.3365,6.3368,0.9758,,4.697,24.983,,,,,,,,,,,,
CalCOFI,2007SR,012,13,2007_012u,15-Jul-2020 07:39:59,14-Jul-2020 23:39:59,31.51288,-120.24670,093.3 070.0,093.3,070.0,483.000,486.942,,6.3823,,6.3826,,6.3825,34.3059,,34.3061,34.3067,,34.3083,34.3072,0.3215,,0.3182,0.3700,1.7185,,0.1614,0.6779,0.5240,13.982,14.1077,15.4297,74.733,,27.6532,21.5415,0.0328,,,,1.7250,,38.1982,37.537,26.9607,,26.9613,,0.6265,85.5041,,7.589,,1.9043E+00,,1.0000E-12,,6.3385,6.3388,0.9758,,4.674,24.981,,,,,,,,,,,,
CalCOFI,2007SR,012,13,2007_012u,15-Jul-2020 07:40:00,14-Jul-2020 23:40:00,31.51288,-120.24670,093.3 070.0,093.3,070.0,482.000,485.932,,6.3884,,6.3888,,6.3886,34.3059,,34.3061,34.3067,,34.3083,34.3072,0.3227,,0.3195,0.3713,1.7179,,0.1599,0.6765,0.5239,14.035,14.1630,15.4849,74.706,,27.5905,21.5377,0.0333,,,,1.7235,,38.1560,37.496,26.9599,,26.9604,,0.6269,85.4947,,7.589,,1.9043E+00,,1.0000E-12,,6.3447,6.3451,0.9758,,4.692,24.976,,,,,,,,,,,,
CalCOFI,2007SR,012,13,2007_012u,15-Jul-2020 07:40:01,14-Jul-2020 23:40:01,31.51288,-120.24668,093.3 070.0,093.3,070.0,481.000,484.923,,6.3968,,6.3970,,6.3969,34.3052,,34.3054,34.3060,,34.3076,34.3065,0.3253,,0.3222,0.3740,1.7173,,0.1585,0.6751,0.5246,14.147,14.2800,15.6015,74.680,,27.5301,21.5658,0.0323,,,,1.7224,,38.1252,37.466,26.9582,,26.9588,,0.6274,85.4847,,7.589,,1.9043E+00,,1.0000E-12,,6.3532,6.3534,0.9758,,4.731,24.972,,,,,,,,,,,,
CalCOFI,2007SR,012,13,2007_012u,15-Jul-2020 07:40:02,14-Jul-2020 23:40:02,31.51288,-120.24668,093.3 070.0,093.3,070.0,480.000,483.914,,6.3987,,6.3987,,6.3987,34.3050,,34.3052,34.3057,,34.3073,34.3063,0.3279,,0.3249,0.3767,1.7170,,0.1578,0.6744,0.5256,14.260,14.3979,15.7192,74.668,,27.5022,21.6107,0.0331,,,,1.7214,,38.0971,37.438,26.9578,,26.9584,,0.6268,85.4968,,7.589,,1.9043E+00,,1.0000E-12,,6.3552,6.3552,0.9758,,4.768,24.968,,,,,,,,,,,,
CalCOFI,2007SR,012,13,2007_012u,15-Jul-2020 07:40:03,14-Jul-2020 23:40:03,31.51288,-120.24668,093.3 070.0,093.3,070.0,479.000,482.905,,6.3990,,6.3992,,6.3991,34.3049,,34.3051,34.3057,,34.3073,34.3062,0.3247,,0.3216,0.3734,1.7167,,0.1571,0.6737,0.5236,14.123,14.2549,15.5765,74.657,,27.4766,21.5266,0.0326,,,,1.7205,,38.0718,37.413,26.9577,,26.9583,,0.6266,85.5005,,7.589,,1.9043E+00,,1.0000E-12,,6.3556,6.3558,0.9758,,4.722,24.965,,,,,,,,,,,,
CalCOFI,2007SR,012,13,2007_012u,15-Jul-2020 07:40:04,14-Jul-2020 23:40:04,31.51288,-120.24668,093.3 070.0,093.3,070.0,478.000,481.895,,6.4042,,6.4054,,6.4048,34.3049,,34.3051,34.3058,,34.3074,34.3063,0.3266,,0.3236,0.3753,1.7162,,0.1559,0.6725,0.5239,14.201,14.3363,15.6578,74.635,,27.4255,21.5417,0.0323,,,,1.7199,,38.0550,37.397,26.9570,,26.9576,,0.6268,85.4966,,7.589,,1.9043E+00,,1.0000E-12,,6.3608,6.3620,0.9758,,4.749,24.961,,,,,,,,,,,,
CalCOFI,2007SR,012,13,2007_012u,15-Jul-2020 07:40:05,14-Jul-2020 23:40:05,31.51288,-120.24668,093.3 070.0,093.3,070.0,477.000,480.886,,6.4121,,6.4126,,6.4124,34.3046,,34.3048,34.3054,,34.3070,34.3059,0.3310,,0.3282,0.3799,1.7157,,0.1547,0.6713,0.5256,14.396,14.5399,15.8609,74.611,,27.3698,21.6154,0.0330,,,,1.7194,,38.0409,37.383,26.9557,,26.9563,,0.6273,85.4870,,7.589,,1.9043E+00,,1.0000E-12,,6.3688,6.3693,0.9758,,4.815,24.958,,,,,,,,,,,,
CalCOFI,2007SR,012,13,2007_012u,15-Jul-2020 07:40:06,14-Jul-2020 23:40:06,31.51288,-120.24668,093.3 070.0,093.3,070.0,476.000,479.877,,6.4191,,6.4204,,6.4198,34.3043,,34.3045,34.3052,,34.3068,34.3057,0.3318,,0.3290,0.3807,1.7151,,0.1533,0.6699,0.5253,14.428,14.5733,15.8942,74.587,,27.3140,21.6041,0.0325,,,,1.7187,,38.0213,37.364,26.9545,,26.9551,,0.6274,85.4834,,7.589,,1.9043E+00,,1.0000E-12,,6.3758,6.3771,0.9758,,4.827,24.954,,,,,,,,,,,,
CalCOFI,2007SR,012,13,2007_012u,15-Jul-2020 07:40:07,14-Jul-2020 23:40:07,31.51288,-120.24668,093.3 070.0,093.3,070.0,475.000,478.867,,6.4304,,6.4319,,6.4312,34.3036,,34.3038,34.3046,,34.3062,34.3050,0.3300,,0.3271,0.3789,1.7144,,0.1516,0.6683,0.5236,14.352,14.4940,15.8150,74.555,,27.2397,21.5274,0.0323,,,,1.7178,,37.9960,37.339,26.9525,,26.9531,,0.6273,85.4854,,7.589,,1.9043E+00,,1.0000E-12,,6.3872,6.3887,0.9758,,4.803,24.950,,,,,,,,,,,,
CalCOFI,2007SR,012,13,2007_012u,15-Jul-2020 07:40:08,14-Jul-2020 23:40:08,31.51288,-120.24668,093.3 070.0,093.3,070.0,474.000,477.858,,6.4356,,6.4365,,6.4361,34.3032,,34.3034,34.3041,,34.3057,34.3046,0.3343,,0.3316,0.3833,1.7140,,0.1506,0.6674,0.5254,14.536,14.6860,16.0067,74.537,,27.1978,21.6023,0.0330,,,,1.7167,,37.9651,37.308,26.9515,,26.9520,,0.6273,85.4857,,7.589,,1.9043E+00,,1.0000E-12,,6.3925,6.3934,0.9758,,4.865,24.946,,,,,,,,,,,,
CalCOFI,2007SR,012,13,2007_012u,15-Jul-2020 07:40:09,14-Jul-2020 23:40:09,31.51288,-120.24668,093.3 070.0,093.3,070.0,473.000,476.849,,6.4384,,6.4389,,6.4387,34.3031,,34.3033,34.3039,,34.3055,34.3044,0.3326,,0.3298,0.3816,1.7136,,0.1497,0.6664,0.5240,14.465,14.6119,15.9327,74.522,,27.1630,21.5479,0.0330,,,,1.7160,,37.9454,37.289,26.9510,,26.9516,,0.6275,85.4824,,7.589,,1.9043E+00,,1.0000E-12,,6.3953,6.3959,0.9758,,4.841,24.943,,,,,,,,,,,,
CalCOFI,2007SR,012,13,2007_012u,15-Jul-2020 07:40:10,14-Jul-2020 23:40:10,31.51288,-120.24668,093.3 070.0,093.3,070.0,472.000,475.839,,6.4408,,6.4411,,6.4410,34.3029,,34.3031,34.3038,,34.3054,34.3043,0.3309,,0.3281,0.3798,1.7133,,0.1490,0.6657,0.5228,14.391,14.5347,15.8557,74.508,,27.1305,21.4931,0.0327,,,,1.7160,,37.9454,37.289,26.9506,,26.9512,,0.6270,85.4918,,7.589,,1.9043E+00,,1.0000E-12,,6.3979,6.3982,0.9758,,4.817,24.939,,,,,,,,,,,,
CalCOFI,2007SR,012,13,2007_012u,15-Jul-2020 07:40:11,14-Jul-2020 23:40:11,31.51288,-120.24668,093.3 070.0,093.3,070.0,471.000,474.830,,6.4430,,6.4430,,6.4430,34.3027,,34.3029,34.3037,,34.3053,34.3041,0.3309,,0.3281,0.3798,1.7130,,0.1482,0.6650,0.5224,14.390,14.5336,15.8546,74.495,,27.1003,21.4775,0.0314,,,,1.7161,,37.9483,37.292,26.9501,,26.9509,,0.6270,85.4937,,7.589,,1.9043E+00,,1.0000E-12,,6.4001,6.4002,0.9758,,4.817,24.936,,,,,,,,,,,,
CalCOFI,2007SR,012,13,2007_012u,15-Jul-2020 07:40:12,14-Jul-2020 23:40:12,31.51288,-120.24668,093.3 070.0,093.3,070.0,470.000,473.821,,6.4451,,6.4453,,6.4452,34.3027,,34.3029,34.3036,,34.3052,34.3041,0.3357,,0.3331,0.3848,1.7127,,0.1475,0.6643,0.5246,14.598,14.7508,16.0712,74.481,,27.0677,21.5695,0.0313,,,,1.7164,,37.9567,37.300,26.9498,,26.9505,,0.6270,85.4936,,7.589,,1.9043E+00,,1.0000E-12,,6.4024,6.4025,0.9758,,4.887,24.932,,,,,,,,,,,,
CalCOFI,2007SR,012,13,2007_012u,15-Jul-2020 07:40:13,14-Jul-2020 23:40:13,31.51288,-120.24668,093.3 070.0,093.3,070.0,469.000,472.811,,6.4496,,6.4502,,6.4499,34.3024,,34.3026,34.3032,,34.3048,34.3037,0.3389,,0.3364,0.3881,1.7122,,0.1463,0.6631,0.5256,14.738,14.8969,16.2171,74.462,,27.0236,21.6204,0.0326,,,,1.7171,,37.9763,37.319,26.9489,,26.9496,,0.6276,85.4808,,7.589,,1.9043E+00,,1.0000E-12,,6.4069,6.4075,0.9758,,4.934,24.929,,,,,,,,,,,,
CalCOFI,2007SR,012,13,2007_012u,15-Jul-2020 07:40:14,14-Jul-2020 23:40:14,31.51288,-120.24668,093.3 070.0,093.3,070.0,468.000,471.802,,6.4529,,6.4532,,6.4531,34.3021,,34.3023,34.3029,,34.3045,34.3034,0.3345,,0.3318,0.3835,1.7119,,0.1456,0.6624,0.5230,14.547,14.6975,16.0181,74.447,,26.9887,21.5034,0.0333,,,,1.7181,,38.0044,37.347,26.9483,,26.9489,,0.6272,85.4879,,7.589,,1.9043E+00,,1.0000E-12,,6.4103,6.4105,0.9758,,4.870,24.925,,,,,,,,,,,,
CalCOFI,2007SR,012,13,2007_012u,15-Jul-2020 07:40:15,14-Jul-2020 23:40:15,31.51288,-120.24668,093.3 070.0,093.3,070.0,467.000,470.793,,6.4552,,6.4553,,6.4553,34.3020,,34.3022,34.3029,,34.3045,34.3034,0.3388,,0.3363,0.3880,1.7116,,0.1449,0.6617,0.5249,14.734,14.8927,16.2129,74.433,,26.9562,21.5846,0.0320,,,,1.7197,,38.0493,37.391,26.9479,,26.9486,,0.6268,85.4968,,7.589,,1.9043E+00,,1.0000E-12,,6.4127,6.4128,0.9758,,4.933,24.922,,,,,,,,,,,,
CalCOFI,2007SR,012,13,2007_012u,15-Jul-2020 07:40:16,14-Jul-2020 23:40:16,31.51290,-120.24668,093.3 070.0,093.3,070.0,466.000,469.784,,6.4582,,6.4592,,6.4587,34.3018,,34.3020,34.3028,,34.3044,34.3032,0.3396,,0.3371,0.3889,1.7112,,0.1439,0.6608,0.5249,14.767,14.9272,16.2473,74.416,,26.9167,21.5820,0.0328,,,,1.7211,,38.0886,37.430,26.9473,,26.9480,,0.6272,85.4880,,7.589,,1.9043E+00,,1.0000E-12,,6.4157,6.4168,0.9758,,4.945,24.918,,,,,,,,,,,,
CalCOFI,2007SR,012,13,2007_012u,15-Jul-2020 07:40:17,14-Jul-2020 23:40:17,31.51290,-120.24668,093.3 070.0,093.3,070.0,465.000,468.774,,6.4647,,6.4654,,6.4651,34.3015,,34.3017,34.3020,,34.3036,34.3027,0.3398,,0.3374,0.3891,1.7107,,0.1428,0.6596,0.5244,14.779,14.9397,16.2598,74.395,,26.8679,21.5639,0.0328,,,,1.7220,,38.1139,37.455,26.9462,,26.9466,,0.6270,85.4927,,7.589,,1.9043E+00,,1.0000E-12,,6.4223,6.4230,0.9758,,4.949,24.915,,,,,,,,,,,,